Accueil
METAR-TAF:

METAR-TAF

Aéroports :

Flessingue, Pays-Bas

latitude: 51-27N, longitude: 3-36E, altitude: 10 m

Observation

Le bulletin a été fait il y a 44 minutes, à 05:25 UTC
Vent 8 kt de nord-ouest
Température 11°C
Humidité 71%
Pression 1032 hPa
Visibilité 10 km ou plus
Quelques nuages à une hauteur de 3900 ft
Nuages épars à une hauteur de 4400 ft

METAR: EHFS 240525Z AUTO 32008KT 9999 FEW039 SCT044 11/06 Q1032 W///H///

Heure: 08:09 (06:09 UTC)


TAF: absent

Observations et prévisions météorologiques de plus de 4000 aéroports (messages METAR et TAF).

Les stations disponibles sont représentées par des disques jaunes et rouges sur la carte.

Passer la souris dessus pour voir le nom de la station.

Cliquer dessus pour voir les observations et prévisions météorologiques.

Pour changer de carte: cliquez sur les boutons verts avec une croix noire pour zoomer, sur le bouton vert avec un tiret pour effectuer un zoom arrière, ou sur les flèches vertes pour les cartes adjacentes.


METAR-TAF: